Погода в Татарине

Россия / Воронежская область     50°35′13″N   39°07′22″E
темп.,
°C
ветер,
м/с
пор.,
м/с
влажн.,
%
обл.,
%
осадки,
мм/ч
давл.,
гПа
погр.,
м
28 октября, чт
чт2800:00+3юз37595 0.0 1023110
03:00+2зюз3685100 0.0 102389
06:00+2зюз3492100 0.0 102267
09:00+5зюз3782100 0.0 1022210
12:00+9зюз696284 0.0 1021631
15:00+8зюз61278100 0.5 1019632
18:00+7з61184100 0.6 1019555
21:00+8зсз5108992 0.6 1020457
29 октября, пт
пт2900:00+7з37946 0.0 1020158
03:00+7сз489380 0.0 1022299
06:00+5ссз379434 0.0 1024130
09:00+7с488769 0.0 1026424
12:00+9св3472100 0.0 1028766
15:00+10ссв2365100 0.0 1028939
18:00+8ссв226944 0.0 103014
21:00+5всв11825 0.0 103110
30 октября, сб
сб3000:00+5ю11844 0.0 103110
03:00+4зюз11850 0.0 103210
06:00+4юз11860 0.0 103310
09:00+6ююз11760 0.0 103477
12:00+11ююз22565 0.0 1033496
15:00+13ююз22495 0.0 1032686
18:00+9ююз11654 0.0 103310
21:00+7ююз11700 0.0 103310
31 октября, вс
вс3100:00+6ю22730 0.0 103310
03:00+5ю11770 0.0 103310
06:00+5ю11800 0.0 103410
09:00+7ююв22680 0.0 103490
12:00+12ююв34460 0.0 1032493
15:00+14ююв34390 0.0 1031698
18:00+9юв22510 0.0 103012
21:00+7юв22550 0.0 103015
1 ноября, пн
пн100:00+6юв22580 0.0 103015
03:00+5юв22620 0.0 102914
06:00+4вюв22690 0.0 102917
09:00+6вюв37630 0.0 1028184
12:00+11юв57500 0.0 1026568
15:00+13юв57410 0.0 1024865
18:00+9вюв48600 0.0 1024132
21:00+7вюв37711 0.0 1023120